Miscellaneous Local Product
Issued by NWS North Platte, NE

Home | Current Version | Previous Version | Text Only | Print | Product List | Glossary On
Versions: 1 2 3 4 5 6 7 8 9 10 11 12 13 14 15 16 17 18 19 20 21 22 23 24 25 26 27 28 29 30 31 32 33 34 35 36 37 38 39 40 41 42 43 44 45 46 47 48 49 50
000
AXUS43 KLBF 040110
MISLBF


WESTERN AND NORTH CENTRAL NEBRASKA HOURLY WEATHER ROUNDUP
NATIONAL WEATHER SERVICE NORTH PLATTE NE
700 PM CST TUE MAR 03 2015

***STATIONS NOT REPORTING VARIABLES SUCH AS SKY/WEATHER OR
PRESSURE ARE PROVIDED BY THE NEBRASKA DEPARTMENT OF
ROADS...RAWS...AND APRS NETWORKS...AND ARE NOT UNDER
NATIONAL WEATHER SERVICE QUALITY CONTROL***

...OBSERVATIONS IN AND NEAR THE EASTERN PANHANDLE OF NEBRASKA...

CITY           SKY/WX    TMP DP  RH WIND       PRES   REMARKS
PINE RIDGE     LGT SNOW  14   8  77 NE5       29.99R WCI   6
CHADRON        LGT SNOW  16  12  84 W13       30.00R VSB 1   WCI   2
ALLIANCE       LGT SNOW  15  11  83 N12       29.95R FOG     WCI   2
SIDNEY         CLOUDY    20  10  65 N10       29.91R WCI   9
WHITECLAY        N/A     13   7  77 N3          N/A
CRESCENT LAKE    N/A     17  13  82 N10         N/A  WCI   5
LISCO            N/A     23  13  68 W9          N/A  WCI  13
BIG SPRINGS      N/A     24  10  53 NE9         N/A  WCI  14
LEWELLEN         N/A     21   2  44 N7          N/A  WCI  12
$$

...OBSERVATIONS IN NORTH CENTRAL NEBRASKA...

CITY           SKY/WX    TMP DP  RH WIND       PRES   REMARKS
VALENTINE      PTCLDY    16   2  54 N10       30.02R WCI   4
THEDFORD       PTCLDY    18   5  56 N10       30.00R WCI   6
AINSWORTH      CLEAR     16   5  61 NW8       30.00R WCI   5
O`NEILL        CLEAR     17   4  57 NW12      30.03R WCI   4
ORD            CLEAR     19   2  47 N14       30.03R WCI   6
BROKEN BOW     CLEAR     20   3  48 N9        30.00R WCI   9
BROWNLEE         N/A     15  -1  48 NW9         N/A  WCI   3
SPRINGVIEW       N/A     17   6  61 NW5         N/A  WCI  10
BREWSTER         N/A     24  10  54 N12         N/A  WCI  13
ROSE             N/A     23  13  67 W5          N/A  WCI  17
NEWPORT          N/A     23  12  62 NW7         N/A  WCI  14
SARGENT          N/A     19   4  51 N3          N/A
COMSTOCK         N/A     26   7  45 S9          N/A  WCI  16
CHAMBERS         N/A     16  -1  47 N6          N/A  WCI   8
EWING            N/A     17   5  60 N5G12       N/A  WCI  10
$$

...OBSERVATIONS IN SOUTHWEST NEBRASKA AND FAR NORTHEAST COLORADO...

CITY           SKY/WX    TMP DP  RH WIND       PRES   REMARKS
WRAY           CLOUDY    27  12  53 NE8       29.92R WCI  19
IMPERIAL         N/A     24   7  48 NE12      29.95R WCI  13
OGALLALA       MOCLDY    22   8  53 N12       29.97R WCI  11
NORTH PLATTE   MOCLDY    22   2  42 N13       29.99R WCI  10
MCCOOK         CLEAR     26   9  48 NE10      29.96R WCI  16
LEXINGTON      CLEAR     24   4  42 N10       29.99R WCI  13
PAXTON           N/A     23   6  49 N10         N/A  WCI  12
BRADY            N/A     22   4  46 CALM        N/A
GOTHENBURG       N/A     22   4  44 N5          N/A  WCI  16
CALLAWAY         N/A     20   5  52 N8          N/A  WCI  10
$$

...NORTH PLATTE AREA...

CITY           SKY/WX    TMP DP  RH WIND       PRES   REMARKS
AIRPORT        MOCLDY    22   2  42 N13       29.99R WCI  10
DOWNTOWN         N/A     21   1  41 N6          N/A  WCI  13
$$

...SOME WEATHER OBSERVATIONS FROM AROUND THE REGION...

CITY           SKY/WX    TMP DP  RH WIND       PRES   REMARKS
DENVER         CLOUDY    19  15  84 NE5       29.82R WCI  12
LARAMIE        LGT SNOW  11   8  88 E6        29.70S FOG     WCI   1
CHEYENNE       LGT SNOW  10   4  76 N8        29.80R WCI  -2
SCOTTSBLUFF    CLOUDY    18   9  68 NW10      29.96R WCI   6
RAPID CITY     PTCLDY    11   0  61 N18       29.97R WCI  -7
PIERRE         CLEAR     16   0  49 NW17      30.03R WCI   0
WINNER         MOCLDY    16   0  49 W10       30.03R WCI   4
SIOUX FALLS    PTCLDY    12   3  67 NW14      30.02S WCI  -3
OMAHA          MOCLDY    24   9  52 N17G26    30.02R WCI  11
GRAND ISLAND   CLEAR     23   5  46 N16       30.02R WCI  10
KANSAS CITY    CLOUDY    35  27  72 N10       29.94R WCI  27
WICHITA        CLOUDY    42  28  57 NE12      29.87F
HAYS           CLOUDY    30  10  43 NE12      29.95R WCI  21
LIBERAL        CLOUDY    37  27  65 NE13      29.90R WCI  29
GOODLAND       CLOUDY    27  14  58 NE8       29.92R WCI  19
$$



USA.gov is the U.S. government's official web portal to all federal, state and local government web resources and services.